SCP
0 0 0 0 0 0 0 0 0 0 0 0 0 0 -0 -0 -0 0 0 0 0 0 0 0 0 0 0 0 0 0 0 0 0 0 -0 -0 -0 -0 -0 -0 -0 -0 -0 -0 -0 -0 -0 -0 -0
0 0 0 0 0 0 0 0 0 0 0 0 0 -0 0 -0 0 0 0 0 0 0 0 0 0 0 0 0 0 0 0 0 0 -0 -0 -0 -0 -0 -0 -0 -0 -0 -0 -0 -0 -0 -0 -0 -0
0 0 0 0 0 0 0 0 0 0 0 0 0 -0 0 0 -0 0 -0 -0 0 0 0 0 0 0 0 0 0 0 0 0 0 0 -0 -0 -0 -0 -0 -0 -0 -0 -0 -0 -0 -0 -0 -0 -0
0 0 0 0 0 0 0 0 0 0 0 0 0 -0 -0 0 -0 0 -0 -0 0 0 0 0 0 0 0 0 -0 -0 0 -0 -0 -0 -0 -0 -0 -0 -0 -0 -0 -0 -0 -0 -0 -0 -0 -0 -0
0 0 0 0 0 0 0 0 0 0 0 0 0 0 0 0 -0 -0 -0 -0 -0 0 0 0 0 0 0 0 0 -0 -0 -0 -0 -0 -0 -0 -0 -0 -0 -0 -0 -0 -0 -0 -0 -0 -0 -0 -0
0 0 0 0 0 0 0 -0 0 0 0 0 0 0 0 0 -0 -0 -0 -0 -0 -0 0 0 0 0 0 0 0 -0 -0 -0 -0 -0 -0 -0 -0 -0 -0 -0 -0 -0 -0 -0 -0 -0 -0 -0 -0
0 0 0 0 0 0 0 0 0 0 0 0 0 0 0 0 -0 -0 -0 -0 -0 -0 -0 0 0 0 0 0 0 0 -0 -0 -0 -0 -0 -0 -0 -0 -0 0 -0 -0 -0 -0 -0 -0 0 0 0
0 0 0 0 0 0 0 0 0 0 0 0 0 0 0 -0 -0 -0 -0 -0 -0 -0 -0 0 0 0 0 0 0 0 0 -0 -0 -0 -0 -0 -0 -0 0 0 -0 -0 -0 -0 0 0 0 0 0
0 0 0 0 0 0 0 0 0 0 0 0 0 0 -0 -0 -0 -0 -0 -0 -0 -0 -0 -0 -0 0 0 0 0 0 0 0 -0 0 -0 0 0 0 0 0 -0 -0 -0 -0 0 0 0 0 0
0 0 0 0 0 0 0 0 0 0 0 0 0 0 0 0 0 -0 -0 -0 -0 -0 -0 -0 -0 -0 -0 0 0 0 -0 0 0 0 0 0 0 0 0 0 -0 -0 -0 0 0 0 0 0 0
0 0 0 0 0 0 0 0 0 0 0 0 0 0 0 0 0 0 -0 -0 -0 -0 -0 -0 -0 -0 -0 -0 0 0 0 -0 0 -0 0 0 0 0 0 0 0 0 0 0 0 0 0 0 0
0 0 0 0 0 0 0 0 0 0 0 0 0 -0 0 0 0 0 0 -0 -0 -0 -0 -0 -0 -0 -0 -0 0 -0 0 0 0 -0 -0 0 0 0 0 0 0 0 0 0 0 0 0 0 0
0 0 0 0 0 0 0 0 0 0 0 0 0 0 0 0 0 0 0 0 0 -0 -0 -0 -0 -0 -0 -0 -0 -0 0 0 -0 -0 -0 -0 0 0 0 0 0 0 0 0 0 0 0 0 0
0 0 0 0 0 0 0 0 0 0 0 0 0 0 0 0 -0 0 0 0 -0 -0 -0 0 -0 -0 -0 0 -0 -0 0 0 0 -0 -0 -0 0 0 0 0 0 0 0 0 0 0 0 0 0
0 0 0 0 0 0 0 0 0 0 0 0 0 0 0 0 0 0 -0 -0 -0 -0 0 -0 -0 -0 0 0 0 0 0 0 0 0 -0 -0 0 0 0 0 0 0 0 0 0 0 0 0 0
0 0 0 0 0 0 0 0 0 0 0 0 0 0 0 0 0 0 0 0 -0 0 0 0 0 0 0 0 0 0 0 0 0 0 0 0 0 0 0 0 0 0 0 0 0 0 0 0 0
0 0 0 0 0 0 0 0 0 0 0 0 0 0 0 0 0 0 0 0 -0 0 0 0 0 0 0 0 0 0 0 0 0 0 0 0 0 0 0 0 0 0 0 0 0 0 0 0 0
0 0 0 0 0 0 0 0 0 0 0 0 0 0 0 0 0 0 0 0 0 0 0 0 0 0 0 0 0 0 0 0 0 0 0 0 0 0 0 0 0 0 0 0 0 0 0 0 0
0 0 0 0 0 0 0 0 0 0 0 0 0 0 0 0 0 0 0 0 0 0 0 0 0 0 0 0 0 0 0 0 0 0 0 0 0 0 0 0 0 0 0 0 0 0 0 0 0
0 0 0 0 0 0 0 0 0 0 0 0 0 0 0 0 0 0 0 0 0 0 0 0 0 0 0 0 0 0 0 0 0 0 0 0 0 0 0 0 0 0 0 0 0 0 0 0 0
0 0 0 0 0 0 0 0 0 0 0 0 0 0 0 0 0 0 0 0 0 0 0 0 0 0 0 0 0 0 0 0 0 0 0 0 0 0 0 0 0 0 0 0 0 0 0 0 0
0 0 0 0 0 0 0 0 0 0 0 0 0 0 0 0 0 0 0 0 0 0 0 0 0 0 0 0 0 0 0 0 0 0 0 0 0 0 0 0 0 0 0 0 0 0 0 0 0
0 0 0 0 0 0 0 0 0 0 0 0 0 0 0 0 0 0 0 0 0 0 0 0 0 0 0 0 0 0 0 0 0 0 0 0 0 0 0 0 0 0 0 0 0 0 0 0 0
0 0 0 0 0 0 0 0 0 0 0 0 0 0 0 0 0 0 0 0 0 0 0 0 0 0 0 0 0 0 0 0 0 0 0 0 0 0 0 0 0 0 0 0 0 0 0 0 0
0 0 0 0 0 0 0 0 0 0 0 0 0 0 0 0 0 0 0 0 0 0 0 0 0 0 0 0 0 0 0 0 0 0 0 0 0 0 0 0 0 0 0 0 0 0 0 0 0
0 0 0 0 0 0 0 0 0 0 0 0 0 0 0 0 0 0 0 0 0 0 0 0 0 0 0 0 0 0 0 0 0 0 0 0 0 0 0 0 0 0 0 0 0 0 0 0 0
0 0 0 0 0 0 0 0 0 0 0 0 0 0 0 0 0 0 0 0 0 0 0 0 0 0 0 0 0 0 0 0 0 0 0 0 0 0 0 0 0 0 0 0 0 0 0 0 0
0 0 0 0 0 0 0 0 0 0 0 0 0 0 0 0 0 0 0 0 0 0 0 0 0 0 0 0 0 0 0 0 0 0 0 0 0 0 0 0 0 0 0 0 0 0 0 0 0
0 0 0 0 0 0 0 0 0 0 0 0 0 0 0 0 0 0 0 0 0 0 0 0 0 0 0 0 0 0 0 0 0 0 0 0 0 0 0 0 0 0 0 0 0 0 0 0 0
0 0 0 0 0 0 0 0 0 0 0 0 0 0 0 0 0 0 0 0 0 0 0 0 0 0 0 0 0 0 0 0 0 0 0 0 0 0 0 0 0 0 0 0 0 0 0 0 0
Wind_Speed_500mb
16 18 11 9 7 9 3 3 8 11 9 18 28 33 22 14 7 8 43 37 33 32 27 26 25 26 25 23 25 30 31 29 34 38 27 24 33 34 34 33 34 36 33 33 35 35 36 38 37
13 12 7 6 8 5 9 8 14 6 21 27 25 17 18 7 26 40 42 33 28 34 28 28 27 26 26 25 24 29 32 29 31 32 29 26 30 30 30 29 32 33 34 31 30 30 33 37 34
5 7 5 7 6 6 9 4 17 22 29 16 9 22 10 7 33 50 41 37 35 36 30 29 29 27 25 24 25 27 30 30 27 25 22 29 34 31 29 29 32 33 35 35 35 33 36 36 33
3 4 5 6 4 10 14 12 34 16 14 14 26 19 18 13 34 34 42 35 35 38 31 29 29 27 26 23 25 25 26 28 28 26 23 28 29 31 31 37 32 35 29 32 29 31 35 35 31
7 2 2 4 4 5 7 42 35 11 13 11 14 8 13 15 18 43 48 38 32 36 31 30 29 27 26 24 23 24 22 25 26 25 26 28 30 21 21 31 29 33 24 30 33 36 37 34 27
5 3 5 8 5 5 9 37 32 19 23 16 27 17 9 18 25 61 47 35 29 31 32 31 30 28 25 25 22 22 21 21 22 22 23 22 20 17 21 28 32 25 27 28 30 29 28 28 24
6 7 9 1 14 5 8 19 28 24 19 8 16 10 27 30 47 51 41 31 29 26 28 30 31 29 26 25 22 21 19 17 18 19 18 16 15 15 14 17 22 23 21 23 25 24 22 24 19
3 6 3 5 13 8 17 10 20 29 8 16 11 13 17 43 52 48 39 34 23 22 24 32 31 29 26 24 22 18 17 16 15 15 14 13 13 13 13 15 20 18 17 19 20 19 19 17 16
7 6 4 7 13 12 29 9 13 19 23 13 10 21 37 46 52 53 43 36 31 23 21 34 32 30 27 25 22 20 17 14 12 11 10 9 9 11 13 13 13 16 16 18 16 15 14 14 14
7 6 5 4 10 12 24 24 20 13 25 15 29 40 50 46 55 60 53 46 39 31 26 27 30 32 29 25 22 19 16 13 10 9 9 8 7 9 8 8 8 10 16 16 15 13 11 12 13
10 8 5 7 12 44 33 20 17 33 5 25 51 59 50 51 54 58 56 52 48 38 34 32 27 36 33 29 26 22 19 16 14 12 10 8 5 4 4 4 4 7 10 12 10 8 5 7 7
6 13 2 5 11 28 21 29 16 19 11 25 37 40 45 51 55 61 59 60 51 43 40 40 39 37 31 28 27 25 24 22 21 19 16 10 6 4 4 4 5 6 7 7 5 3 2 2 1
5 1 12 6 13 19 16 12 9 19 23 30 40 41 37 40 50 53 53 53 49 53 50 46 44 45 41 33 31 31 30 29 21 19 19 17 14 10 10 8 9 10 9 8 6 4 3 4 4
6 11 12 11 8 8 11 3 6 21 27 27 38 40 30 33 36 40 46 44 42 39 50 55 51 47 47 42 36 31 30 28 29 27 23 20 20 19 15 11 12 12 13 11 9 8 7 7 6
16 11 4 6 11 6 12 0 12 18 36 35 40 36 30 29 30 34 34 38 33 32 33 48 52 52 50 51 45 40 37 34 33 30 30 22 25 24 22 17 15 16 16 16 15 13 11 10 9
8 10 7 5 14 5 8 13 15 31 37 33 34 37 38 37 35 29 29 36 37 33 37 35 40 48 52 53 52 47 42 39 37 36 35 30 30 30 28 26 22 20 22 21 19 16 15 13 13
5 7 6 1 15 6 6 12 6 34 34 33 32 32 35 38 41 40 37 38 37 39 35 36 38 40 47 50 51 53 51 46 42 40 38 35 32 35 35 32 29 28 27 25 24 23 21 21 22
11 6 7 11 11 6 7 14 6 18 25 30 30 29 31 44 39 39 45 42 40 37 38 38 40 41 40 49 50 52 53 52 49 48 43 39 37 33 40 39 36 35 32 31 30 29 29 28 31
13 11 11 2 2 8 12 11 19 32 24 30 32 32 26 35 30 27 34 44 42 40 40 43 40 39 43 48 55 55 56 57 57 57 52 46 41 38 33 37 41 42 39 34 33 34 35 36 44
5 11 5 3 2 5 3 22 21 21 25 41 39 35 32 27 34 34 39 47 47 46 45 43 43 41 43 45 45 55 55 56 53 54 55 52 50 45 38 36 39 39 37 38 41 40 44 45 51
8 11 9 10 6 1 5 15 13 19 45 52 46 41 35 40 43 46 48 49 49 55 55 51 50 52 51 48 44 44 47 51 53 57 54 54 54 52 49 42 40 43 42 40 36 41 48 52 53
13 11 12 17 8 5 7 9 11 11 17 18 60 47 42 33 45 56 54 50 46 46 53 61 64 63 58 54 53 53 52 51 57 55 53 51 54 57 55 51 43 53 50 51 51 50 47 56 63
11 12 15 8 7 7 3 1 15 4 10 17 38 53 47 43 43 44 42 41 43 48 50 53 61 69 67 61 52 49 49 43 46 45 46 46 48 53 54 56 56 48 53 49 49 55 47 53 58
17 17 17 11 7 4 13 13 12 10 15 10 18 36 41 42 38 36 40 41 40 37 35 37 45 54 65 66 60 44 41 41 40 40 44 46 43 41 46 46 48 47 46 49 45 48 48 52 59
17 15 5 4 2 11 4 7 16 10 13 13 21 45 43 37 34 32 29 26 22 19 19 19 23 32 47 56 58 49 37 36 36 32 36 37 40 38 38 38 41 44 46 45 46 46 52 54 47
16 16 11 14 9 8 4 15 13 7 4 14 26 44 37 33 31 31 26 24 22 20 16 17 19 22 29 39 48 44 38 40 31 32 32 33 34 35 34 34 37 38 39 39 48 46 43 43 48
11 11 11 14 6 7 9 14 16 9 9 7 32 41 38 36 34 30 30 27 24 22 20 20 21 21 23 26 34 39 42 32 23 27 33 33 34 34 30 29 32 32 39 36 37 45 48 48 47
10 15 6 5 8 7 10 13 13 11 19 12 17 42 42 39 38 35 34 32 30 25 24 24 24 25 24 23 23 27 28 20 20 24 26 30 30 34 36 35 34 35 37 39 36 36 34 33 37
6 7 5 10 12 11 3 13 14 21 26 31 39 51 44 44 43 41 38 33 30 29 27 26 26 25 24 23 20 16 12 9 7 8 11 15 18 22 22 24 25 27 29 33 36 38 39 41 39
4 13 16 10 8 4 7 24 6 6 16 37 44 56 53 48 47 44 41 39 36 33 30 28 26 23 21 18 15 12 11 10 9 7 5 4 3 2 1 3 6 9 11 13 15 18 20 22 24
Wind_Direction_500mb
318 322 326 320 39 65 252 130 109 77 52 76 72 95 106 72 49 156 151 177 168 159 147 131 123 116 114 105 87 84 84 93 93 102 93 78 78 84 106 105 104 103 104 106 106 101 96 96 97
318 320 326 331 81 44 270 163 120 119 117 105 81 103 56 83 112 137 157 178 165 159 145 134 127 120 118 111 96 90 84 89 96 105 100 81 81 85 90 93 94 92 92 95 97 98 98 91 92
318 299 335 98 133 194 179 93 130 112 115 119 102 87 69 90 137 143 163 172 165 155 147 138 132 127 123 114 107 97 85 85 90 100 102 86 86 87 92 91 96 88 95 95 94 99 95 104 101
165 170 250 98 248 293 123 169 129 110 110 89 111 75 87 136 140 158 167 172 163 149 148 144 136 133 127 123 116 107 90 84 89 90 91 93 89 87 91 89 83 94 89 95 95 99 102 101 103
161 178 39 284 256 21 94 136 130 114 140 127 104 105 89 100 144 158 165 179 168 149 152 149 142 138 132 129 122 114 100 86 87 88 95 96 98 97 96 98 94 96 92 94 101 103 108 108 104
165 149 72 247 203 164 116 148 133 129 149 121 113 105 110 152 156 153 169 177 169 160 161 157 149 144 140 136 134 122 115 97 91 93 100 107 105 96 90 109 110 105 104 96 101 105 108 111 120
134 98 205 203 180 160 156 133 128 128 137 143 133 85 142 158 154 156 171 175 178 173 171 166 158 153 149 145 148 133 130 115 102 98 100 106 96 87 90 107 120 118 102 101 102 103 103 106 111
233 110 277 198 191 175 157 114 122 142 125 135 106 150 176 165 157 159 164 172 179 189 185 178 169 164 162 158 160 151 146 137 123 114 114 113 111 104 111 118 116 128 117 111 108 107 107 108 108
195 58 277 252 171 168 151 128 94 113 125 108 105 151 161 162 159 160 166 175 182 199 205 186 179 175 174 172 172 170 166 158 144 132 125 125 118 106 115 107 109 114 117 124 122 114 109 105 104
166 132 234 313 165 160 145 145 132 122 123 93 114 140 156 164 167 167 173 179 183 189 196 188 193 185 184 186 184 185 182 180 173 169 159 155 136 113 123 114 116 113 115 121 124 118 112 107 105
204 190 265 30 54 151 147 152 143 137 185 179 154 156 167 172 171 175 182 189 185 184 189 195 214 197 193 194 196 199 197 200 201 203 207 197 165 138 125 142 133 127 127 128 125 117 87 101 100
245 216 43 51 55 148 140 150 153 165 160 203 187 178 176 182 181 183 191 196 198 191 189 195 196 189 203 196 203 208 211 212 211 209 222 235 231 252 240 218 190 190 168 161 150 112 64 83 201
228 239 116 113 107 116 141 143 155 163 144 151 181 183 186 186 190 194 200 206 212 202 200 197 197 195 201 206 213 210 214 218 222 218 217 230 236 240 233 232 218 220 213 212 204 219 217 216 235
237 150 128 133 124 113 131 135 167 195 162 154 171 183 193 199 198 195 202 207 216 217 209 207 208 205 202 206 208 215 210 212 212 224 232 224 232 244 244 235 234 234 236 240 241 247 235 248 253
149 97 60 147 171 143 122 184 233 190 190 172 174 188 202 213 211 216 217 217 217 218 223 213 212 213 210 211 212 215 217 218 226 224 239 231 237 241 254 256 248 243 243 245 251 257 254 257 267
136 86 137 256 163 173 149 249 235 193 186 191 198 199 205 214 229 231 225 225 229 230 228 222 223 215 215 216 215 219 221 223 225 228 230 242 236 241 244 253 258 254 248 248 252 252 256 262 269
39 175 160 250 205 137 151 250 287 190 194 202 210 216 215 216 219 224 228 228 233 230 229 230 231 229 218 221 218 220 220 227 230 229 240 240 241 241 245 249 253 256 254 251 250 248 252 263 275
159 178 205 190 216 130 163 259 293 196 205 221 227 227 224 220 226 227 217 224 231 234 239 242 243 236 234 221 223 224 225 223 229 232 236 240 245 239 243 248 250 255 257 254 252 253 254 266 275
148 174 184 141 292 138 207 255 253 254 231 229 224 225 221 220 238 231 215 215 218 226 235 241 237 237 237 231 223 224 226 226 228 232 234 237 242 249 241 244 250 255 258 260 258 256 258 269 273
166 164 138 58 114 136 179 252 250 238 232 233 228 223 225 224 214 216 216 214 212 217 228 238 248 246 246 247 246 236 231 232 235 235 234 236 243 248 252 247 249 256 263 261 260 262 262 262 267
175 169 178 160 163 327 28 297 255 251 234 238 235 230 235 233 214 203 204 208 217 216 216 220 232 245 250 252 250 245 238 237 236 236 236 238 240 248 255 255 257 258 261 266 270 270 272 273 275
169 181 135 123 101 205 101 274 293 240 232 211 231 228 218 207 195 197 204 213 221 224 224 224 225 233 237 241 248 247 253 253 243 242 244 244 248 249 255 263 267 267 262 264 267 269 267 273 270
192 133 130 132 102 90 305 24 270 293 247 237 226 222 214 210 204 201 214 228 237 245 239 234 232 228 233 237 237 242 245 248 247 248 252 253 252 254 256 262 263 265 272 274 269 280 270 277 287
151 82 47 49 76 306 225 172 270 217 222 243 222 213 199 198 211 217 225 233 237 242 241 239 238 231 228 229 238 239 235 247 249 251 253 257 258 255 254 256 261 265 268 272 274 274 276 277 284
103 91 55 23 350 222 359 224 244 241 228 216 204 184 185 200 208 212 213 216 217 218 217 214 216 213 215 223 228 232 225 240 245 248 250 253 257 257 261 262 263 265 269 271 276 278 273 277 278
166 160 154 181 197 226 340 233 244 258 245 216 195 184 188 197 201 200 201 201 199 197 189 189 190 188 198 212 220 227 224 235 239 237 242 246 251 256 258 259 261 263 268 268 271 276 277 271 281
222 199 162 103 37 66 230 289 297 190 221 178 175 178 185 193 197 198 197 197 197 195 180 174 179 180 183 191 202 212 218 225 220 226 235 240 248 257 257 254 263 262 270 265 277 275 280 281 279
169 152 83 8 128 246 268 267 236 226 230 204 193 193 191 195 198 198 200 199 195 190 179 167 159 160 167 176 187 199 217 207 207 214 224 236 244 252 256 260 259 264 263 266 266 270 274 278 288
127 177 168 138 160 178 208 258 221 212 201 201 209 206 198 197 198 197 199 198 193 187 178 169 161 157 153 154 159 165 166 174 196 217 222 226 230 235 241 246 253 259 264 268 272 275 275 276 281
192 197 171 168 217 200 158 257 206 247 241 203 210 209 205 204 198 199 197 195 191 187 178 173 168 165 162 163 162 161 157 157 163 167 165 158 148 169 234 281 287 290 298 300 302 303 304 304 302
Wind_Speed_850mb
16 18 11 9 7 9 3 3 8 11 9 18 28 33 22 14 7 8 43 37 33 32 27 26 25 26 25 23 25 30 31 29 34 38 27 24 33 34 34 33 34 36 33 33 35 35 36 38 37
13 12 7 6 8 5 9 8 14 6 21 27 25 17 18 7 26 40 42 33 28 34 28 28 27 26 26 25 24 29 32 29 31 32 29 26 30 30 30 29 32 33 34 31 30 30 33 37 34
5 7 5 7 6 6 9 4 17 22 29 16 9 22 10 7 33 50 41 37 35 36 30 29 29 27 25 24 25 27 30 30 27 25 22 29 34 31 29 29 32 33 35 35 35 33 36 36 33
3 4 5 6 4 10 14 12 34 16 14 14 26 19 18 13 34 34 42 35 35 38 31 29 29 27 26 23 25 25 26 28 28 26 23 28 29 31 31 37 32 35 29 32 29 31 35 35 31
7 2 2 4 4 5 7 42 35 11 13 11 14 8 13 15 18 43 48 38 32 36 31 30 29 27 26 24 23 24 22 25 26 25 26 28 30 21 21 31 29 33 24 30 33 36 37 34 27
5 3 5 8 5 5 9 37 32 19 23 16 27 17 9 18 25 61 47 35 29 31 32 31 30 28 25 25 22 22 21 21 22 22 23 22 20 17 21 28 32 25 27 28 30 29 28 28 24
6 7 9 1 14 5 8 19 28 24 19 8 16 10 27 30 47 51 41 31 29 26 28 30 31 29 26 25 22 21 19 17 18 19 18 16 15 15 14 17 22 23 21 23 25 24 22 24 19
3 6 3 5 13 8 17 10 20 29 8 16 11 13 17 43 52 48 39 34 23 22 24 32 31 29 26 24 22 18 17 16 15 15 14 13 13 13 13 15 20 18 17 19 20 19 19 17 16
7 6 4 7 13 12 29 9 13 19 23 13 10 21 37 46 52 53 43 36 31 23 21 34 32 30 27 25 22 20 17 14 12 11 10 9 9 11 13 13 13 16 16 18 16 15 14 14 14
7 6 5 4 10 12 24 24 20 13 25 15 29 40 50 46 55 60 53 46 39 31 26 27 30 32 29 25 22 19 16 13 10 9 9 8 7 9 8 8 8 10 16 16 15 13 11 12 13
10 8 5 7 12 44 33 20 17 33 5 25 51 59 50 51 54 58 56 52 48 38 34 32 27 36 33 29 26 22 19 16 14 12 10 8 5 4 4 4 4 7 10 12 10 8 5 7 7
6 13 2 5 11 28 21 29 16 19 11 25 37 40 45 51 55 61 59 60 51 43 40 40 39 37 31 28 27 25 24 22 21 19 16 10 6 4 4 4 5 6 7 7 5 3 2 2 1
5 1 12 6 13 19 16 12 9 19 23 30 40 41 37 40 50 53 53 53 49 53 50 46 44 45 41 33 31 31 30 29 21 19 19 17 14 10 10 8 9 10 9 8 6 4 3 4 4
6 11 12 11 8 8 11 3 6 21 27 27 38 40 30 33 36 40 46 44 42 39 50 55 51 47 47 42 36 31 30 28 29 27 23 20 20 19 15 11 12 12 13 11 9 8 7 7 6
16 11 4 6 11 6 12 0 12 18 36 35 40 36 30 29 30 34 34 38 33 32 33 48 52 52 50 51 45 40 37 34 33 30 30 22 25 24 22 17 15 16 16 16 15 13 11 10 9
8 10 7 5 14 5 8 13 15 31 37 33 34 37 38 37 35 29 29 36 37 33 37 35 40 48 52 53 52 47 42 39 37 36 35 30 30 30 28 26 22 20 22 21 19 16 15 13 13
5 7 6 1 15 6 6 12 6 34 34 33 32 32 35 38 41 40 37 38 37 39 35 36 38 40 47 50 51 53 51 46 42 40 38 35 32 35 35 32 29 28 27 25 24 23 21 21 22
11 6 7 11 11 6 7 14 6 18 25 30 30 29 31 44 39 39 45 42 40 37 38 38 40 41 40 49 50 52 53 52 49 48 43 39 37 33 40 39 36 35 32 31 30 29 29 28 31
13 11 11 2 2 8 12 11 19 32 24 30 32 32 26 35 30 27 34 44 42 40 40 43 40 39 43 48 55 55 56 57 57 57 52 46 41 38 33 37 41 42 39 34 33 34 35 36 44
5 11 5 3 2 5 3 22 21 21 25 41 39 35 32 27 34 34 39 47 47 46 45 43 43 41 43 45 45 55 55 56 53 54 55 52 50 45 38 36 39 39 37 38 41 40 44 45 51
8 11 9 10 6 1 5 15 13 19 45 52 46 41 35 40 43 46 48 49 49 55 55 51 50 52 51 48 44 44 47 51 53 57 54 54 54 52 49 42 40 43 42 40 36 41 48 52 53
13 11 12 17 8 5 7 9 11 11 17 18 60 47 42 33 45 56 54 50 46 46 53 61 64 63 58 54 53 53 52 51 57 55 53 51 54 57 55 51 43 53 50 51 51 50 47 56 63
11 12 15 8 7 7 3 1 15 4 10 17 38 53 47 43 43 44 42 41 43 48 50 53 61 69 67 61 52 49 49 43 46 45 46 46 48 53 54 56 56 48 53 49 49 55 47 53 58
17 17 17 11 7 4 13 13 12 10 15 10 18 36 41 42 38 36 40 41 40 37 35 37 45 54 65 66 60 44 41 41 40 40 44 46 43 41 46 46 48 47 46 49 45 48 48 52 59
17 15 5 4 2 11 4 7 16 10 13 13 21 45 43 37 34 32 29 26 22 19 19 19 23 32 47 56 58 49 37 36 36 32 36 37 40 38 38 38 41 44 46 45 46 46 52 54 47
16 16 11 14 9 8 4 15 13 7 4 14 26 44 37 33 31 31 26 24 22 20 16 17 19 22 29 39 48 44 38 40 31 32 32 33 34 35 34 34 37 38 39 39 48 46 43 43 48
11 11 11 14 6 7 9 14 16 9 9 7 32 41 38 36 34 30 30 27 24 22 20 20 21 21 23 26 34 39 42 32 23 27 33 33 34 34 30 29 32 32 39 36 37 45 48 48 47
10 15 6 5 8 7 10 13 13 11 19 12 17 42 42 39 38 35 34 32 30 25 24 24 24 25 24 23 23 27 28 20 20 24 26 30 30 34 36 35 34 35 37 39 36 36 34 33 37
6 7 5 10 12 11 3 13 14 21 26 31 39 51 44 44 43 41 38 33 30 29 27 26 26 25 24 23 20 16 12 9 7 8 11 15 18 22 22 24 25 27 29 33 36 38 39 41 39
4 13 16 10 8 4 7 24 6 6 16 37 44 56 53 48 47 44 41 39 36 33 30 28 26 23 21 18 15 12 11 10 9 7 5 4 3 2 1 3 6 9 11 13 15 18 20 22 24
Wind_Direction_850mb
318 322 326 320 39 65 252 130 109 77 52 76 72 95 106 72 49 156 151 177 168 159 147 131 123 116 114 105 87 84 84 93 93 102 93 78 78 84 106 105 104 103 104 106 106 101 96 96 97
318 320 326 331 81 44 270 163 120 119 117 105 81 103 56 83 112 137 157 178 165 159 145 134 127 120 118 111 96 90 84 89 96 105 100 81 81 85 90 93 94 92 92 95 97 98 98 91 92
318 299 335 98 133 194 179 93 130 112 115 119 102 87 69 90 137 143 163 172 165 155 147 138 132 127 123 114 107 97 85 85 90 100 102 86 86 87 92 91 96 88 95 95 94 99 95 104 101
165 170 250 98 248 293 123 169 129 110 110 89 111 75 87 136 140 158 167 172 163 149 148 144 136 133 127 123 116 107 90 84 89 90 91 93 89 87 91 89 83 94 89 95 95 99 102 101 103
161 178 39 284 256 21 94 136 130 114 140 127 104 105 89 100 144 158 165 179 168 149 152 149 142 138 132 129 122 114 100 86 87 88 95 96 98 97 96 98 94 96 92 94 101 103 108 108 104
165 149 72 247 203 164 116 148 133 129 149 121 113 105 110 152 156 153 169 177 169 160 161 157 149 144 140 136 134 122 115 97 91 93 100 107 105 96 90 109 110 105 104 96 101 105 108 111 120
134 98 205 203 180 160 156 133 128 128 137 143 133 85 142 158 154 156 171 175 178 173 171 166 158 153 149 145 148 133 130 115 102 98 100 106 96 87 90 107 120 118 102 101 102 103 103 106 111
233 110 277 198 191 175 157 114 122 142 125 135 106 150 176 165 157 159 164 172 179 189 185 178 169 164 162 158 160 151 146 137 123 114 114 113 111 104 111 118 116 128 117 111 108 107 107 108 108
195 58 277 252 171 168 151 128 94 113 125 108 105 151 161 162 159 160 166 175 182 199 205 186 179 175 174 172 172 170 166 158 144 132 125 125 118 106 115 107 109 114 117 124 122 114 109 105 104
166 132 234 313 165 160 145 145 132 122 123 93 114 140 156 164 167 167 173 179 183 189 196 188 193 185 184 186 184 185 182 180 173 169 159 155 136 113 123 114 116 113 115 121 124 118 112 107 105
204 190 265 30 54 151 147 152 143 137 185 179 154 156 167 172 171 175 182 189 185 184 189 195 214 197 193 194 196 199 197 200 201 203 207 197 165 138 125 142 133 127 127 128 125 117 87 101 100
245 216 43 51 55 148 140 150 153 165 160 203 187 178 176 182 181 183 191 196 198 191 189 195 196 189 203 196 203 208 211 212 211 209 222 235 231 252 240 218 190 190 168 161 150 112 64 83 201
228 239 116 113 107 116 141 143 155 163 144 151 181 183 186 186 190 194 200 206 212 202 200 197 197 195 201 206 213 210 214 218 222 218 217 230 236 240 233 232 218 220 213 212 204 219 217 216 235
237 150 128 133 124 113 131 135 167 195 162 154 171 183 193 199 198 195 202 207 216 217 209 207 208 205 202 206 208 215 210 212 212 224 232 224 232 244 244 235 234 234 236 240 241 247 235 248 253
149 97 60 147 171 143 122 184 233 190 190 172 174 188 202 213 211 216 217 217 217 218 223 213 212 213 210 211 212 215 217 218 226 224 239 231 237 241 254 256 248 243 243 245 251 257 254 257 267
136 86 137 256 163 173 149 249 235 193 186 191 198 199 205 214 229 231 225 225 229 230 228 222 223 215 215 216 215 219 221 223 225 228 230 242 236 241 244 253 258 254 248 248 252 252 256 262 269
39 175 160 250 205 137 151 250 287 190 194 202 210 216 215 216 219 224 228 228 233 230 229 230 231 229 218 221 218 220 220 227 230 229 240 240 241 241 245 249 253 256 254 251 250 248 252 263 275
159 178 205 190 216 130 163 259 293 196 205 221 227 227 224 220 226 227 217 224 231 234 239 242 243 236 234 221 223 224 225 223 229 232 236 240 245 239 243 248 250 255 257 254 252 253 254 266 275
148 174 184 141 292 138 207 255 253 254 231 229 224 225 221 220 238 231 215 215 218 226 235 241 237 237 237 231 223 224 226 226 228 232 234 237 242 249 241 244 250 255 258 260 258 256 258 269 273
166 164 138 58 114 136 179 252 250 238 232 233 228 223 225 224 214 216 216 214 212 217 228 238 248 246 246 247 246 236 231 232 235 235 234 236 243 248 252 247 249 256 263 261 260 262 262 262 267
175 169 178 160 163 327 28 297 255 251 234 238 235 230 235 233 214 203 204 208 217 216 216 220 232 245 250 252 250 245 238 237 236 236 236 238 240 248 255 255 257 258 261 266 270 270 272 273 275
169 181 135 123 101 205 101 274 293 240 232 211 231 228 218 207 195 197 204 213 221 224 224 224 225 233 237 241 248 247 253 253 243 242 244 244 248 249 255 263 267 267 262 264 267 269 267 273 270
192 133 130 132 102 90 305 24 270 293 247 237 226 222 214 210 204 201 214 228 237 245 239 234 232 228 233 237 237 242 245 248 247 248 252 253 252 254 256 262 263 265 272 274 269 280 270 277 287
151 82 47 49 76 306 225 172 270 217 222 243 222 213 199 198 211 217 225 233 237 242 241 239 238 231 228 229 238 239 235 247 249 251 253 257 258 255 254 256 261 265 268 272 274 274 276 277 284
103 91 55 23 350 222 359 224 244 241 228 216 204 184 185 200 208 212 213 216 217 218 217 214 216 213 215 223 228 232 225 240 245 248 250 253 257 257 261 262 263 265 269 271 276 278 273 277 278
166 160 154 181 197 226 340 233 244 258 245 216 195 184 188 197 201 200 201 201 199 197 189 189 190 188 198 212 220 227 224 235 239 237 242 246 251 256 258 259 261 263 268 268 271 276 277 271 281
222 199 162 103 37 66 230 289 297 190 221 178 175 178 185 193 197 198 197 197 197 195 180 174 179 180 183 191 202 212 218 225 220 226 235 240 248 257 257 254 263 262 270 265 277 275 280 281 279
169 152 83 8 128 246 268 267 236 226 230 204 193 193 191 195 198 198 200 199 195 190 179 167 159 160 167 176 187 199 217 207 207 214 224 236 244 252 256 260 259 264 263 266 266 270 274 278 288
127 177 168 138 160 178 208 258 221 212 201 201 209 206 198 197 198 197 199 198 193 187 178 169 161 157 153 154 159 165 166 174 196 217 222 226 230 235 241 246 253 259 264 268 272 275 275 276 281
192 197 171 168 217 200 158 257 206 247 241 203 210 209 205 204 198 199 197 195 191 187 178 173 168 165 162 163 162 161 157 157 163 167 165 158 148 169 234 281 287 290 298 300 302 303 304 304 302